Showing default

OPS 9317 (IDSCS 7), 2221

Orbit data source: Space-Track

OPS 9317 (IDSCS 7), 2221 is a payload satellite owned by USAF SSD (US) in GEO that was launched on Thu, 16 Jun 1966 UTC via a TITAN IIIC launch vehicle from the Air Force Eastern Test Range (AFETR). Payloads include a variety of satellites, spacecraft, and rockets equipped with specific instruments for various scientific and technological missions. These include communications satellites like Starlink; space stations such as the ISS; scientific satellites like the Hubble; Earth observation satellites from companies like Planet Labs, Umbra, and HawkEye 360; GPS; miniature CubeSats for education and research; and military/defense satellites.

Loading next visibility...
OPS 9317 (IDSCS 7) details
Identifier
2221, 1966-053H
Orbit
GEO
Last TLE update1 week ago
Origin
Flag of USUSAF SSD (US)
ManufacturerPhilco-Ford WDL
MissionNon-operational Defense Communications
Bus & MotorIDCSP, Unknown motor
Mass45 kg wet, 45 kg dry
Launch date (UTC)
1966-06-16 (59 years ago)
Launch vehicle
TITAN IIIC
Launch site
Air Force Eastern Test Range (AFETR)
Object type
Payload
Rocket body
Debris
Shape & HBRIco Poly, 0.9 m
Radar Cross Section0.926 m², Medium (>0.1 m² and < 1m²)

Expand to show TLE details & history

TLE from 1 week ago
0 OPS 9317 (IDSCS 7)
1  2221U 66053H   25038.64766606 -.00000113  00000-0  00000+0 0  9991
2  2221   7.4671  51.4641 0080026 162.2635 198.0959  1.06869553228697
Epoch: 2025-02-07T15:32Z
Definitive object data (Epoch: 2025-02-07T15:32:38.347Z)
Latitude0.00001°
Longitude40.39575°
Altitude34,338.49 km
Speed3.117 km/s
True Right ascension03h 26m 14s
True Declination0° 00' 00"
Sunlit
Object was in daylight at TLE epoch
Visualization TLE readout
Latitude0.58719°
Longitude-144.07438°
Altitude33,718.555 km
Speed3.165 km/s
Apparent Right ascension14h 45m 55s
Apparent Declination-5° 39' 18"
Sunlit
Object is in daylight
Visualization observer readout
Local Sidereal Time18:18:38
Azimuth240.092° WSW
Elevation23.215°
Doppler factor1
Orbital elements
Apogee altitude34,357.313 km
Perigee altitude33,710.51 km
Semi-major axis40,412.048 km
Eccentricity0.0080026
Inclination7.4671°
RAAN51.4641°
Arg. of periapsis162.2635°
True anomaly197.81375°
Mean anomaly198.0959°
Eccentric anomaly197.95456°
Mean motion0.26716 °/min
BSTARUnknown
Orbital period1347.49 mins
Loading historical data...
2221 neighbors
Authenticating...
Loading maneuver chart data...
Loading historical data...
Loading historical data...
Loading historical data...
Loading historical data...
Loading historical data...
Loading historical data...
Loading historical data...

OPS 9317 (IDSCS 7) Visibility forecast

Observer location: undefined°, undefined

Span
Click to sort rows by Start time (UTC) header in descending order
Start Az.
Max El. time (UTC)
Max El. Az.
Max El.
End time (UTC)
End Az.
1440 mins2025-02-14 15:39:28.285Z240.076° WSW2025-02-15 10:20:28.285Z226.948° WSW33.034°2025-02-15 15:39:28.285Z212.804° SW
|